Погода в Железинке

Казахстан     53°32′18″N   75°19′15″E
темп.,
°C
ветер,
м/с
пор.,
м/с
влажн.,
%
обл.,
%
осадки,
мм/ч
давл.,
гПа
погр.,
м
2 марта, вт
вт200:00−14сз339682 0.3 101422
03:00−17зсз349758 0.0 101634
06:00−19з339857 0.0 101726
09:00−19з239771 0.0 101831
12:00−15зюз239277 0.0 1018238
15:00−13юз2389100 0.0 1017315
18:00−15юз239499 0.0 101733
21:00−17юз229589 0.0 101720
3 марта, ср
ср300:00−17юз239680 0.0 101720
03:00−16ююз239781 0.1 101624
06:00−16юз349784 0.1 101764
09:00−17юз499590 0.1 1018223
12:00−15юз6109050 0.1 1018350
15:00−12ююз7118864 0.0 1018490
18:00−13ююз6128971 0.0 1017426
21:00−10ююз71488100 0.0 1017465
4 марта, чт
чт400:00−10ююз71389100 0.0 1016396
03:00−8ююз71489100 0.0 1015422
06:00−6ююз81592100 0.1 1014513
09:00−4ююз91593100 0.2 1013663
12:00−2ююз91487100 0.4 1013705
15:00−1ююз81584100 0.1 1012829
18:00−2ююз71583100 0.1 1011799
21:00−2ююз91693100 0.2 1009850
5 марта, пт
пт500:00−1ююз81690100 0.6 1009718
03:00−3юз71588100 0.1 1007543
06:00−4зюз7139498 0.3 1009537
09:00−8з7148866 0.0 1013407
12:00−7зюз7128533 0.0 1017477
15:00−6юз9168134 0.0 1017685
18:00−5юз10188566 0.1 10161027
21:00−4юз111882100 0.1 1016993
6 марта, сб
сб600:00−4юз101881100 0.1 1016921
03:00−5юз101882100 0.0 1015793
06:00−6юз101791100 0.2 1015759
09:00−6юз91687100 0.1 1015740
12:00−4зюз91588100 0.1 1015764
15:00−3зюз81390100 0.1 1016808
18:00−2зюз61091100 0.2 1017598
21:00−5юз51091100 0.0 1018234